Date,TemperatureHighF,TemperatureAvgF,TemperatureLowF,DewpointHighF,DewpointAvgF,DewpointLowF,HumidityHigh,HumidityAvg,HumidityLow,PressureMaxIn,PressureMinIn,WindSpeedMaxMPH,WindSpeedAvgMPH,GustSpeedMaxMPH,PrecipitationSumIn
2013-1-1,49.8,46.8,43.3,49.5,40.9,28.4,99,82,50,29.97,29.81,7,2,0,0.23
2013-1-2,49.3,45.1,40.5,49.0,43.0,38.6,99,92,76,30.06,29.80,5,2,0,0.32
2013-1-3,41.4,41.4,41.4,37.8,37.8,37.8,87,87,87,30.10,30.10,2,2,0,0.00
2013-1-4,43.3,40.1,34.9,29.1,23.6,20.7,79,53,42,30.18,30.14,9,5,0,0.00
2013-1-5,46.9,39.5,30.4,31.4,27.4,21.8,85,64,43,30.24,30.16,3,0,0,0.00
2013-1-6,45.9,42.0,40.3,38.1,35.8,33.0,83,78,73,30.09,30.06,3,1,0,0.00
2013-1-7,29.3,29.0,28.6,29.1,28.8,28.4,99,99,99,30.32,30.30,0,0,0,0.00
2013-1-8,46.8,41.9,29.3,40.9,38.4,29.1,99,88,74,30.34,30.26,4,1,0,0.00
2013-1-9,67.6,49.2,34.3,50.7,43.9,34.0,99,84,53,30.33,30.22,5,1,0,0.00
2013-1-10,64.2,52.6,44.6,48.6,44.8,37.8,99,77,51,30.41,30.29,7,1,0,0.00
2013-1-11,50.4,47.0,41.2,50.1,43.5,33.2,99,89,55,30.31,30.02,7,2,0,0.29
2013-1-12,67.8,53.1,48.7,63.1,52.7,48.4,99,98,85,30.04,29.97,3,1,0,0.00
2013-1-13,75.2,62.6,52.3,63.2,58.1,52.0,99,87,61,30.01,29.91,8,2,0,0.00
2013-1-14,69.4,63.5,57.7,64.0,60.6,57.4,99,91,80,30.02,29.95,5,2,0,0.00
2013-1-15,64.8,46.8,44.6,63.3,46.3,44.3,99,98,93,30.12,29.92,9,3,0,0.00
2013-1-16,49.8,46.0,43.0,49.5,45.7,42.7,99,99,99,29.95,29.83,5,2,0,0.20
2013-1-17,50.4,49.1,43.0,50.1,48.8,42.7,99,99,99,29.92,29.76,14,3,0,1.06
2013-1-20,43.7,41.3,37.0,31.5,30.4,29.8,76,65,60,29.96,29.94,2,0,0,0.00
2013-1-21,59.0,43.4,26.1,36.4,27.9,16.9,99,61,30,29.95,29.72,8,2,0,0.00
2013-1-22,41.7,32.8,22.6,17.7,6.4,-2.9,50,33,18,30.17,29.83,10,3,0,0.00
2013-1-23,40.6,29.0,16.0,17.0,10.5,2.2,88,48,25,30.26,29.94,7,2,0,0.00
2013-1-24,37.0,31.1,22.8,25.1,13.1,2.2,83,49,28,30.40,29.83,14,4,0,0.00
2013-1-25,28.0,24.8,19.6,27.5,15.2,3.7,99,70,38,30.43,29.99,9,2,0,0.06
2013-1-26,40.1,30.9,24.8,33.7,28.8,24.6,99,92,67,30.29,29.97,4,1,0,0.17
2013-1-27,40.5,31.0,19.9,31.1,25.8,19.2,99,83,57,30.49,30.28,8,1,0,0.01
2013-1-28,51.4,43.4,33.3,48.8,37.4,28.6,97,80,61,30.39,30.11,5,2,0,0.02
2013-1-29,71.8,58.3,45.1,58.7,52.9,44.8,99,84,60,30.12,29.93,9,3,0,0.00
2013-1-30,72.0,67.1,60.6,65.9,63.2,58.2,99,88,75,29.93,29.24,14,8,0,0.48
2013-1-31,61.0,46.3,33.8,59.6,31.0,19.1,97,58,32,29.88,29.32,16,5,0,0.14
2013-2-1,39.9,34.7,25.2,28.5,13.6,3.6,67,44,25,30.27,29.75,19,5,0,0.00
2013-2-2,44.2,31.5,16.9,37.6,14.3,6.4,86,51,30,30.29,29.89,12,2,0,0.00
2013-2-3,49.1,41.6,29.8,37.5,30.5,24.0,99,68,43,29.88,29.70,8,2,0,0.00
2013-2-4,48.7,38.2,23.2,27.8,23.6,19.8,98,59,34,30.02,29.86,7,2,0,0.00
2013-2-5,59.7,46.1,35.1,35.5,32.7,28.3,97,62,37,29.88,29.74,8,2,0,0.00
2013-2-6,59.7,44.3,29.1,38.1,29.6,22.9,99,64,25,30.16,29.83,7,2,0,0.00
2013-2-7,49.8,42.6,35.4,43.4,38.2,34.0,99,85,65,30.21,29.86,9,3,0,0.40
2013-2-8,55.6,45.7,39.4,46.5,40.6,28.7,99,84,57,29.91,29.68,14,5,0,0.72
2013-2-9,50.9,38.9,26.8,28.6,23.9,18.0,97,60,27,30.23,29.91,8,2,0,0.00
2013-2-10,53.1,39.1,22.3,42.9,24.6,20.3,99,62,28,30.36,30.08,10,2,0,0.02
2013-2-11,62.8,56.8,45.5,61.3,55.9,43.3,99,97,92,30.07,29.79,11,4,0,0.06
2013-2-12,62.2,53.1,46.2,55.6,36.5,26.6,99,58,28,29.95,29.77,7,2,0,0.00
2013-2-13,49.1,45.9,42.4,47.2,44.3,36.4,99,95,64,29.82,29.49,8,2,0,0.21
2013-2-14,52.2,40.6,28.9,36.1,33.0,28.7,99,78,46,29.94,29.71,5,1,0,0.00
2013-2-15,63.1,42.8,26.8,39.6,32.5,26.6,99,73,36,29.96,29.79,7,1,0,0.00
2013-2-16,46.2,36.7,31.1,37.0,33.1,26.3,99,88,66,29.85,29.68,6,3,0,0.45
2013-2-17,36.9,29.3,20.3,26.1,14.2,7.1,82,56,29,30.16,29.79,16,4,0,0.00
2013-2-18,51.4,34.9,15.4,26.5,18.6,14.0,99,59,24,30.30,30.13,9,2,0,0.00
2013-2-19,51.4,43.7,36.0,51.1,39.7,26.3,99,86,60,30.12,29.73,10,3,0,0.15
2013-2-20,51.6,40.0,26.1,39.1,21.3,13.9,99,52,22,30.02,29.83,9,2,0,0.00
2013-2-21,52.7,40.0,22.3,23.6,19.2,14.6,95,47,23,30.13,29.98,10,2,0,0.00
2013-2-22,42.6,36.4,32.5,36.0,32.9,21.1,99,89,42,30.23,30.02,8,2,0,0.42
2013-2-23,43.2,40.0,36.0,42.9,39.7,35.7,99,99,99,29.99,29.68,5,2,0,1.05
2013-2-24,61.0,48.0,34.0,48.0,38.3,27.3,99,74,28,29.91,29.67,7,2,0,0.07
2013-2-25,44.4,37.9,33.3,30.0,24.8,21.7,84,60,43,30.11,29.91,8,2,0,0.00
2013-2-26,57.4,46.1,35.8,57.1,43.6,25.2,99,92,61,30.01,29.42,18,4,0,1.15
2013-2-27,58.3,48.7,40.8,44.7,41.0,36.6,99,78,48,29.65,29.48,6,3,0,0.00
2013-2-28,49.6,41.0,29.3,40.0,32.3,26.4,99,74,41,29.72,29.56,8,2,0,0.00
2013-3-1,50.9,39.0,26.1,31.9,28.5,25.9,99,69,41,29.77,29.70,10,2,0,0.00
2013-3-2,48.7,37.1,24.1,33.4,25.4,19.8,99,66,40,29.79,29.65,7,2,0,0.00
2013-3-3,45.5,35.2,22.8,22.4,19.9,17.3,86,55,38,29.85,29.70,9,3,0,0.00
2013-3-4,50.4,35.6,22.8,20.5,16.5,13.7,75,48,23,29.98,29.85,9,2,0,0.00
2013-3-5,51.3,42.4,33.4,45.0,36.0,20.2,99,80,40,29.95,29.43,9,2,0,0.44
2013-3-6,47.1,42.4,37.2,44.7,33.4,26.9,99,72,51,29.90,29.37,18,6,0,0.02
2013-3-7,51.4,42.3,31.8,32.4,29.2,25.3,87,61,45,30.11,29.89,15,4,0,0.00
2013-3-8,54.9,43.4,29.1,29.1,25.7,23.4,85,53,31,30.16,30.02,11,4,0,0.00
2013-3-9,63.0,45.2,28.4,33.2,28.5,25.6,94,57,26,30.21,30.09,6,1,0,0.00
2013-3-10,68.7,48.2,29.3,35.7,28.2,21.3,99,56,18,30.20,30.07,8,2,0,0.00
2013-3-11,70.7,55.0,35.6,54.4,44.5,25.8,99,70,41,30.11,29.80,14,5,0,0.00
2013-3-12,71.4,61.4,50.5,64.3,54.2,32.1,99,80,44,29.82,29.61,11,5,0,0.70
2013-3-13,58.1,46.3,31.8,35.2,27.6,19.4,99,52,29,30.01,29.81,11,4,0,0.00
2013-3-14,54.3,40.3,29.8,23.0,18.8,16.9,68,43,23,30.12,29.97,11,4,0,0.00
2013-3-15,62.8,46.4,24.4,35.1,28.1,19.5,96,53,28,30.06,29.76,9,2,0,0.00
2013-3-16,77.9,62.6,50.2,50.6,44.4,34.7,76,53,36,29.76,29.51,13,3,0,0.00
2013-3-17,62.1,51.4,40.8,53.8,46.3,38.5,99,83,63,30.05,29.70,10,3,0,0.00
2013-3-18,44.2,40.5,37.9,43.6,40.2,37.6,99,99,96,30.08,29.69,10,3,0,0.47
2013-3-19,67.3,51.5,40.6,49.2,34.7,14.6,99,64,17,29.88,29.67,10,3,0,0.00
2013-3-20,56.3,47.3,36.7,25.5,15.1,6.9,62,28,19,29.99,29.64,11,3,0,0.00
2013-3-21,47.1,40.0,31.3,32.2,19.4,10.8,78,45,29,29.84,29.60,12,4,0,0.00
2013-3-22,54.0,37.6,20.1,23.0,15.4,12.1,75,43,21,29.96,29.82,9,2,0,0.00
2013-3-23,57.9,44.5,35.1,32.5,26.6,21.5,85,51,32,29.93,29.76,5,0,0,0.00
2013-3-24,41.7,38.4,33.4,39.6,36.7,30.7,99,94,73,29.80,29.43,9,2,0,0.91
2013-3-25,50.4,41.5,36.1,39.3,30.9,23.1,99,70,39,29.67,29.42,17,4,0,0.00
2013-3-26,52.0,42.3,31.8,29.6,27.1,24.0,79,56,41,29.98,29.69,8,3,0,0.00
2013-3-27,53.4,42.3,32.5,28.1,24.8,20.9,79,53,30,30.10,29.99,12,4,0,0.00
2013-3-28,57.4,43.1,26.4,28.5,24.9,23.0,89,52,28,30.16,30.02,9,3,0,0.00
2013-3-29,60.8,44.4,26.1,31.6,27.5,24.5,99,58,26,30.22,30.04,9,1,0,0.00
2013-3-30,68.7,53.4,38.7,45.1,36.4,28.3,88,57,22,30.13,29.95,7,1,0,0.00
2013-3-31,68.9,57.6,48.4,60.3,52.6,43.4,99,84,66,29.97,29.67,7,3,0,0.80
2013-4-1,72.9,61.4,53.4,55.5,47.4,37.2,99,66,31,29.84,29.66,9,2,0,0.03
2013-4-2,61.5,49.3,34.5,36.1,29.0,22.3,84,49,23,30.04,29.85,10,2,0,0.00
2013-4-3,61.2,50.5,40.3,29.9,23.8,18.8,57,37,21,30.16,30.05,10,2,0,0.00
2013-4-4,49.1,42.6,39.2,41.0,33.3,23.1,99,72,45,30.23,29.79,9,3,0,0.86
2013-4-5,65.3,49.3,39.4,49.7,44.2,39.1,99,85,50,29.88,29.74,7,2,0,0.05
2013-4-6,66.4,53.2,38.5,42.1,33.0,24.9,99,52,24,30.14,29.88,13,3,0,0.00
2013-4-7,73.4,56.3,35.4,48.7,40.5,34.1,99,59,34,30.15,29.97,7,3,0,0.00
2013-4-8,80.1,67.5,53.1,59.3,54.3,49.2,99,66,41,30.05,29.90,11,3,0,0.00
2013-4-9,86.9,71.3,56.1,62.9,58.0,55.8,99,67,35,30.05,29.90,9,2,0,0.00
2013-4-10,87.1,74.8,61.7,64.8,60.5,57.4,95,64,40,29.96,29.79,10,4,0,0.00
2013-4-11,83.3,71.9,61.2,68.0,62.4,58.6,99,74,50,29.85,29.64,10,4,0,0.00
2013-4-12,83.7,72.5,65.1,72.5,64.7,49.9,99,79,46,29.66,29.45,11,4,0,0.93
2013-4-13,82.2,64.2,51.3,50.2,42.2,39.1,66,47,24,29.86,29.61,7,2,0,0.00
2013-4-14,79.9,63.8,43.0,54.1,45.0,37.6,99,58,22,29.97,29.87,8,2,0,0.00
2013-4-15,73.6,65.8,59.0,59.7,57.0,51.0,97,74,58,30.07,29.87,11,2,0,0.02
2013-4-16,80.2,66.3,57.7,63.5,59.9,57.4,99,82,52,30.17,30.05,7,1,0,0.00
2013-4-17,84.4,70.9,57.7,67.3,63.4,57.4,99,79,52,30.09,29.95,7,2,0,0.00
2013-4-18,80.8,70.7,59.4,65.2,61.3,58.6,99,74,53,30.06,29.89,13,4,0,0.00
2013-4-19,84.4,71.9,65.3,70.2,66.7,62.7,99,85,59,29.91,29.56,14,5,0,0.56
2013-4-20,65.1,55.9,45.7,64.8,41.2,32.7,99,62,31,30.14,29.67,10,3,0,0.09
2013-4-21,63.0,52.2,40.1,43.6,40.2,37.8,99,67,44,30.35,30.14,9,3,0,0.00
2013-4-22,62.2,50.2,36.7,46.6,39.2,31.6,95,68,45,30.35,30.12,9,4,0,0.01
2013-4-23,67.5,54.9,47.3,52.1,48.8,46.1,99,82,53,30.15,29.99,8,3,0,0.04
2013-4-24,78.4,63.7,47.1,59.4,54.6,46.8,99,75,47,30.02,29.82,12,2,0,0.00
2013-4-25,72.7,61.9,49.3,57.9,47.1,39.5,96,61,36,30.13,29.87,9,3,0,0.00
2013-4-26,73.9,59.6,46.2,51.9,43.4,34.0,99,63,27,30.29,30.14,6,1,0,0.00
2013-4-27,75.6,64.2,51.1,54.6,46.7,41.3,87,56,31,30.24,30.12,7,2,0,0.00
2013-4-28,62.8,59.4,56.5,57.0,49.4,42.1,98,70,56,30.13,29.97,7,3,0,0.08
2013-4-29,70.9,64.3,61.2,63.4,62.5,60.9,99,94,75,29.87,29.82,0,0,0,0.00
2013-4-30,68.9,62.5,57.6,61.6,59.9,56.5,99,92,75,30.03,29.85,7,2,0,0.00
2013-5-1,63.1,59.3,56.1,60.4,58.2,55.8,99,96,89,30.18,30.02,8,3,0,0.00
2013-5-2,65.7,59.7,54.5,59.4,57.3,53.4,99,92,79,30.19,30.11,7,3,0,0.00
2013-5-3,70.3,58.8,48.0,56.7,50.9,43.9,99,77,49,30.13,30.02,7,3,0,0.00
2013-5-4,66.4,56.5,49.5,53.7,49.5,44.3,92,78,60,30.08,29.93,13,4,0,0.00
2013-5-5,61.2,56.1,50.2,57.2,52.5,47.4,95,88,80,29.96,29.84,10,5,0,0.00
2013-5-6,70.9,61.0,55.9,66.7,60.3,55.6,99,98,85,29.86,29.68,10,3,0,1.93
2013-5-7,74.1,59.8,48.2,61.2,53.8,47.9,99,83,43,29.81,29.71,7,1,0,0.08
2013-5-8,75.6,62.8,52.9,60.3,57.1,52.6,99,84,57,29.87,29.78,8,2,0,0.06
2013-5-9,82.8,67.7,54.7,63.0,58.0,54.4,99,75,41,29.92,29.84,6,2,0,0.00
2013-5-10,87.1,74.6,55.0,63.8,60.5,54.7,99,65,41,29.92,29.78,8,2,0,0.00
2013-5-11,83.7,74.0,66.6,69.1,64.1,59.3,99,73,52,29.81,29.63,8,3,0,0.28
2013-5-12,74.8,67.0,55.9,65.8,51.3,34.5,98,61,33,29.88,29.63,9,3,0,0.00
2013-5-13,67.6,57.2,44.6,41.1,36.9,31.3,80,50,28,30.04,29.88,10,2,0,0.00
2013-5-14,72.0,58.4,38.5,45.0,40.2,34.3,99,56,26,30.12,29.93,8,2,0,0.00
2013-5-15,88.5,70.6,55.4,64.1,54.7,42.4,80,58,41,29.93,29.74,6,3,0,0.00
2013-5-16,86.4,76.7,63.5,64.9,61.5,58.2,91,62,41,29.83,29.75,7,2,0,0.00
2013-5-17,88.9,76.3,60.4,66.9,62.3,59.4,99,66,39,29.93,29.83,5,1,0,0.00
2013-5-18,88.0,71.8,62.1,69.7,66.1,61.8,99,84,50,30.00,29.92,5,1,0,0.49
2013-5-19,79.0,69.5,64.9,72.3,67.8,64.6,99,95,73,30.01,29.90,9,3,0,0.54
2013-5-20,77.0,71.2,67.1,73.7,69.7,66.8,99,95,83,29.97,29.87,7,2,0,1.61
2013-5-21,87.4,73.6,68.9,73.7,70.1,68.6,99,90,62,29.91,29.79,7,3,0,0.01
2013-5-22,86.5,75.9,69.1,74.0,69.8,66.9,99,83,57,29.88,29.75,10,3,0,0.09
2013-5-23,77.2,76.3,75.4,70.5,70.3,70.2,84,82,80,29.78,29.78,5,3,0,0.00
2013-5-24,71.2,65.1,53.2,63.7,46.5,38.9,97,53,34,30.05,29.70,16,5,0,0.06
2013-5-25,75.6,59.6,40.1,50.0,41.4,36.6,99,56,26,30.13,29.99,9,2,0,0.00
2013-5-26,75.6,60.7,46.4,52.8,46.3,41.6,91,63,35,30.14,30.02,4,0,0,0.00
2013-5-27,82.2,68.2,49.1,58.4,52.7,48.8,99,63,35,30.15,30.01,5,1,0,0.00
2013-5-28,85.6,74.9,63.1,67.9,63.7,55.4,94,69,52,30.12,29.98,8,1,0,0.00
2013-5-29,87.6,76.6,62.4,66.8,64.3,61.8,99,68,47,30.10,30.01,8,0,0,0.00
2013-5-30,88.7,77.1,62.1,69.8,64.9,61.8,99,69,44,30.13,30.01,1,0,0,0.00
2013-6-8,85.5,77.7,70.5,70.5,69.6,68.8,99,78,60,29.95,29.81,4,1,0,0.00
2013-6-9,89.2,76.7,66.2,74.2,70.3,65.9,99,83,56,30.01,29.89,8,2,0,0.01
2013-6-10,84.7,76.2,72.1,78.8,73.7,70.9,98,92,71,29.95,29.73,8,4,0,0.66
2013-6-13,95.5,89.6,70.2,78.0,73.7,67.0,92,62,46,29.62,29.43,8,3,0,0.00
2013-6-14,79.5,75.9,67.8,59.6,58.0,56.4,70,54,48,29.81,29.66,9,3,0,0.01
2013-6-15,87.4,78.0,58.8,64.7,62.2,58.5,99,60,43,29.96,29.88,7,1,0,0.00
2013-6-16,92.1,76.2,64.0,70.1,63.2,55.7,78,65,47,29.98,29.84,12,3,0,0.00
2013-6-28,75.0,72.9,70.3,72.3,71.3,69.3,99,95,89,29.53,29.45,8,3,0,1.62
2013-6-29,86.7,76.7,68.0,75.5,72.0,67.7,99,87,66,29.56,29.44,6,2,0,0.60
2013-6-30,89.1,76.9,70.3,76.1,72.8,68.5,99,89,64,29.71,29.54,8,2,0,0.70
2013-7-1,84.0,76.1,69.6,75.5,72.8,69.3,99,90,72,29.84,29.68,10,2,0,0.85
2013-7-2,78.8,74.1,71.6,75.0,73.1,71.3,99,97,86,30.03,29.83,8,4,0,0.40
2013-7-3,87.4,79.1,73.6,77.2,74.3,71.5,99,86,69,30.10,30.00,9,4,0,0.00
2013-7-4,90.3,81.3,73.4,76.4,72.7,68.1,99,77,49,30.14,30.03,10,5,0,0.00
2013-7-5,91.6,82.1,72.7,75.9,73.2,71.2,99,76,54,30.14,30.01,9,4,0,0.00
2013-7-6,89.8,80.4,72.9,75.0,72.8,68.9,98,79,59,30.11,29.97,10,3,0,0.00
2013-7-7,85.5,75.1,70.5,74.6,70.9,68.8,99,87,70,30.06,30.01,6,2,0,0.00
2013-11-24,28.4,25.0,22.1,10.8,7.8,3.0,59,48,33,30.41,30.35,0,0,0,0.00
2013-11-25,42.4,31.2,16.5,13.6,9.3,3.7,77,44,21,30.46,30.25,9,1,0,0.00
2013-11-26,65.5,46.3,37.6,65.2,36.2,10.4,99,72,32,30.24,29.42,12,3,0,1.08
2013-11-27,49.5,40.1,29.8,49.2,36.8,18.6,99,89,61,30.03,29.35,12,5,0,0.85
2013-11-28,41.9,30.6,19.9,22.6,18.7,15.9,88,64,37,30.36,30.04,10,2,0,0.00
2013-11-29,48.0,34.3,21.4,29.8,22.6,19.2,99,66,36,30.52,30.35,6,1,0,0.00
2013-11-30,46.9,35.3,26.6,31.2,26.4,20.7,96,71,53,30.52,30.25,5,2,0,0.00
2013-12-1,54.9,41.8,25.9,39.6,32.5,25.7,99,73,41,30.24,29.89,6,0,0,0.00
2013-12-2,60.1,44.7,35.4,45.4,39.8,35.1,99,85,52,29.88,29.68,4,0,0,0.00
2013-12-3,59.0,46.8,31.1,47.4,41.4,30.9,99,83,61,29.86,29.73,4,1,0,0.00
2013-12-4,65.1,57.5,51.3,57.8,53.2,46.9,99,86,76,29.96,29.84,6,1,0,0.00
2013-12-5,67.8,61.9,53.6,65.3,60.9,53.3,99,97,90,30.00,29.90,8,2,0,0.02
2013-12-6,78.1,70.4,64.9,67.9,65.1,63.4,98,84,67,29.94,29.82,14,4,0,0.00
2013-12-7,68.7,49.6,42.8,65.5,45.4,35.1,99,86,74,30.32,29.84,11,4,0,0.37
2013-12-8,42.6,36.0,33.4,34.6,33.1,30.6,99,90,71,30.34,30.15,7,3,0,0.13
2013-12-9,45.3,39.9,34.3,45.0,39.6,34.0,99,99,99,30.15,29.92,5,1,0,0.21
2013-12-10,46.8,43.0,26.6,46.5,41.0,25.4,99,93,68,30.20,29.77,7,2,0,0.54
2013-12-11,49.1,33.5,21.0,33.3,24.1,19.8,99,72,36,30.34,30.15,6,1,0,0.00
2013-12-12,43.7,32.6,23.4,26.9,19.9,11.6,99,64,29,30.29,30.14,9,2,0,0.00
2013-12-13,50.4,34.7,19.6,28.8,21.8,16.9,94,65,28,30.27,30.13,5,1,0,0.00
2013-12-14,47.5,41.8,38.3,43.4,35.1,25.6,99,79,45,30.17,29.63,7,2,0,0.96
2013-12-15,52.7,43.3,31.6,46.9,37.1,26.5,99,80,56,29.94,29.57,9,2,0,0.04
2013-12-16,52.2,39.0,26.1,35.5,30.6,23.0,99,74,48,30.05,29.94,4,1,0,0.00
2013-12-17,61.0,47.9,32.9,37.5,35.0,30.8,97,64,40,29.99,29.74,8,2,0,0.00
2013-12-18,47.5,38.8,26.8,36.0,21.5,15.2,81,52,27,30.16,29.90,8,2,0,0.00
2013-12-19,59.9,44.7,27.3,29.9,24.4,21.0,80,49,23,30.20,30.08,8,2,0,0.00
2013-12-20,65.5,54.3,43.2,52.4,43.8,30.1,80,68,49,30.12,29.98,9,2,0,0.00
2013-12-21,73.2,62.6,52.2,64.4,55.1,46.4,85,77,64,30.02,29.90,14,3,0,0.00
2013-12-22,78.1,70.7,64.2,66.4,64.2,59.8,99,81,62,29.97,29.88,14,5,0,0.36
2013-12-23,67.6,60.4,46.9,66.9,59.7,41.1,99,98,80,30.01,29.84,9,3,0,2.54
2013-12-24,46.6,41.2,29.7,40.8,29.1,12.3,83,63,43,30.33,29.99,10,5,0,0.00
2013-12-25,37.4,28.4,21.0,18.3,12.2,8.3,80,52,31,30.42,30.28,7,2,0,0.00
2013-12-26,48.4,35.1,23.7,29.9,25.8,18.2,88,70,44,30.27,30.11,5,1,0,0.00
2013-12-27,49.3,33.6,21.9,27.1,21.9,17.9,94,68,29,30.34,30.24,4,0,0,0.00
2013-12-28,57.9,39.7,22.1,34.7,26.7,19.4,99,65,27,30.29,30.02,6,0,0,0.00
2013-12-29,61.9,48.6,42.1,61.6,46.7,31.8,99,94,52,30.02,29.56,13,2,0,2.42
2013-12-30,54.7,44.4,32.9,45.8,39.7,32.7,99,85,65,30.00,29.79,5,1,0,0.00
2013-12-31,50.2,41.0,29.3,38.4,29.8,20.2,93,67,31,30.23,29.98,12,2,0,0.00
2014-1-1,52.3,38.5,28.0,31.0,26.9,22.0,99,68,31,30.30,30.02,6,1,0,0.00
2014-1-2,49.6,43.1,36.1,46.5,38.0,29.8,99,83,65,30.02,29.43,12,1,0,0.36